Find Starlink 4331

NORAD ID: 53046 Int'l Des: 2022-077 Owner: SPXS Country: US Constellation: starlink operational
LEOCIRCULARRETROGRADESSO

当前视图

正在加载3D地球...

About Starlink 4331

Starlink 4331 (NORAD 53046) is a starlink constellation satellite (v1.5) launched Jul 11, 2022 by SPXS of US. It operates in LEO, CIRCULAR, RETROGRADE, SSO orbit with a mass of 297.00 kg.

关于 Starlink 4331

正在加载描述...

即将过境

Passes for default location (London). Set your location on the main map for personalized predictions.

高度历史

Loading altitude history...

两行轨道根数

1 53046U 22077D 26169.77337302 -.00000570 00000-0 -35544-4 0 9991
2 53046 97.3490 349.8967 0001611 86.0671 274.0741 15.05662562216209
Epoch: Jun 18, 2026 • Age: 10 hours

当前状态

高度 558.1 km
速度 7.59 km/s
星下点 56.59°N, 156.03°W
发射日期 Jul 11, 2022
运行时间 3.9 years
类型 internet

技术详情

分类 Payload
质量 297.00 kg
干质量 275.00 kg
总质量 297.00 kg
长度 0.20 m
直径 2.80 m
跨度 9.00 m
形状 Box + pan
制造商 SPXS
平台类型 Starlink
阶段状态 In Orbit
所有者/国家 SPXS/US

Most Searched